Year,Month,Day,Hour,Minute,Value (Times are PST for temperature in C)
2010,02,21,00,00,4.30
2010,02,21,00,01,4.30
2010,02,21,00,02,4.40
2010,02,21,00,03,4.40
2010,02,21,00,04,4.40
2010,02,21,00,05,4.40
2010,02,21,00,06,4.40
2010,02,21,00,07,4.30
2010,02,21,00,08,4.30
2010,02,21,00,09,4.20
2010,02,21,00,10,4.20
2010,02,21,00,11,4.20
2010,02,21,00,12,4.20
2010,02,21,00,13,4.20
2010,02,21,00,14,4.20
2010,02,21,00,15,4.20
2010,02,21,00,16,4.20
2010,02,21,00,17,4.20
2010,02,21,00,18,4.20
2010,02,21,00,19,4.20
2010,02,21,00,20,4.20
2010,02,21,00,21,4.20
2010,02,21,00,22,4.20
2010,02,21,00,23,4.30
2010,02,21,00,24,4.30
2010,02,21,00,25,4.30
2010,02,21,00,26,4.30
2010,02,21,00,27,4.40
2010,02,21,00,28,4.40
2010,02,21,00,29,4.40
2010,02,21,00,30,4.50
2010,02,21,00,31,4.50
2010,02,21,00,32,4.50
2010,02,21,00,33,4.60
2010,02,21,00,34,4.60
2010,02,21,00,35,4.60
2010,02,21,00,36,4.60
2010,02,21,00,37,4.70
2010,02,21,00,38,4.70
2010,02,21,00,39,4.70
2010,02,21,00,40,4.70
2010,02,21,00,41,4.70
2010,02,21,00,42,4.70
2010,02,21,00,43,4.70
2010,02,21,00,44,4.70
2010,02,21,00,45,4.70
2010,02,21,00,46,4.70
2010,02,21,00,47,4.70
2010,02,21,00,48,4.70
2010,02,21,00,49,4.80
2010,02,21,00,50,4.80
2010,02,21,00,51,4.80
2010,02,21,00,52,4.90
2010,02,21,00,53,4.90
2010,02,21,00,54,4.90
2010,02,21,00,55,4.90
2010,02,21,00,56,4.90
2010,02,21,00,57,4.90
2010,02,21,00,58,4.90
2010,02,21,00,59,4.90
2010,02,21,01,00,4.90
2010,02,21,01,01,4.90
2010,02,21,01,02,4.90
2010,02,21,01,03,4.90
2010,02,21,01,04,4.90
2010,02,21,01,05,4.90
2010,02,21,01,06,4.80
2010,02,21,01,07,4.80
2010,02,21,01,08,4.80
2010,02,21,01,09,4.80
2010,02,21,01,10,4.80
2010,02,21,01,11,4.80
2010,02,21,01,12,4.70
2010,02,21,01,13,4.70
2010,02,21,01,14,4.70
2010,02,21,01,15,4.70
2010,02,21,01,16,4.60
2010,02,21,01,17,4.60
2010,02,21,01,18,4.60
2010,02,21,01,19,4.60
2010,02,21,01,20,4.50
2010,02,21,01,21,4.50
2010,02,21,01,22,4.50
2010,02,21,01,23,4.40
2010,02,21,01,24,4.40
2010,02,21,01,25,4.30
2010,02,21,01,26,4.30
2010,02,21,01,27,4.20
2010,02,21,01,28,4.20
2010,02,21,01,29,4.20
2010,02,21,01,30,4.20
2010,02,21,01,31,4.20
2010,02,21,01,32,4.20
2010,02,21,01,33,4.20
2010,02,21,01,34,4.20
2010,02,21,01,35,4.20
2010,02,21,01,36,4.20
2010,02,21,01,37,4.10
2010,02,21,01,38,4.10
2010,02,21,01,39,4.10
2010,02,21,01,40,4.10
2010,02,21,01,41,4.10
2010,02,21,01,42,4.10
2010,02,21,01,43,4.10
2010,02,21,01,44,4.10
2010,02,21,01,45,4.10
2010,02,21,01,46,4.00
2010,02,21,01,47,4.00
2010,02,21,01,48,4.00
2010,02,21,01,49,4.10
2010,02,21,01,50,4.10
2010,02,21,01,51,4.10
2010,02,21,01,52,4.10
2010,02,21,01,53,4.10
2010,02,21,01,54,4.10
2010,02,21,01,55,4.10
2010,02,21,01,56,4.10
2010,02,21,01,57,4.10
2010,02,21,01,58,4.00
2010,02,21,01,59,4.00
2010,02,21,02,00,4.00
2010,02,21,02,01,4.00
2010,02,21,02,02,4.00
2010,02,21,02,03,4.10
2010,02,21,02,04,4.10
2010,02,21,02,05,4.10
2010,02,21,02,06,4.10
2010,02,21,02,07,4.10
2010,02,21,02,08,4.20
2010,02,21,02,09,4.20
2010,02,21,02,10,4.20
2010,02,21,02,11,4.20
2010,02,21,02,12,4.20
2010,02,21,02,13,4.20
2010,02,21,02,14,4.20
2010,02,21,02,15,4.20
2010,02,21,02,16,4.20
2010,02,21,02,17,4.20
2010,02,21,02,18,4.30
2010,02,21,02,19,4.30
2010,02,21,02,20,4.30
2010,02,21,02,21,4.30
2010,02,21,02,22,4.40
2010,02,21,02,23,4.50
2010,02,21,02,24,4.50
2010,02,21,02,25,4.60
2010,02,21,02,26,4.60
2010,02,21,02,27,4.60
2010,02,21,02,28,4.70
2010,02,21,02,29,4.70
2010,02,21,02,30,4.70
2010,02,21,02,31,4.70
2010,02,21,02,32,4.70
2010,02,21,02,33,4.80
2010,02,21,02,34,4.80
2010,02,21,02,35,4.80
2010,02,21,02,36,4.90
2010,02,21,02,37,4.90
2010,02,21,02,38,4.90
2010,02,21,02,39,4.90
2010,02,21,02,40,4.90
2010,02,21,02,41,4.90
2010,02,21,02,42,4.90
2010,02,21,02,43,4.90
2010,02,21,02,44,4.90
2010,02,21,02,45,4.80
2010,02,21,02,46,4.80
2010,02,21,02,47,4.80
2010,02,21,02,48,4.80
2010,02,21,02,49,4.80
2010,02,21,02,50,4.80
2010,02,21,02,51,4.70
2010,02,21,02,52,4.70
2010,02,21,02,53,4.70
2010,02,21,02,54,4.70
2010,02,21,02,55,4.70
2010,02,21,02,56,4.70
2010,02,21,02,57,4.70
2010,02,21,02,58,4.60
2010,02,21,02,59,4.60
2010,02,21,03,00,4.60
2010,02,21,03,01,4.60
2010,02,21,03,02,4.60
2010,02,21,03,03,4.60
2010,02,21,03,04,4.60
2010,02,21,03,05,4.60
2010,02,21,03,06,4.50
2010,02,21,03,07,4.50
2010,02,21,03,08,4.50
2010,02,21,03,09,4.50
2010,02,21,03,10,4.40
2010,02,21,03,11,4.40
2010,02,21,03,12,4.40
2010,02,21,03,13,4.40
2010,02,21,03,14,4.40
2010,02,21,03,15,4.40
2010,02,21,03,16,4.40
2010,02,21,03,17,4.40
2010,02,21,03,18,4.40
2010,02,21,03,19,4.40
2010,02,21,03,20,4.40
2010,02,21,03,21,4.40
2010,02,21,03,22,4.30
2010,02,21,03,23,4.30
2010,02,21,03,24,4.30
2010,02,21,03,25,4.30
2010,02,21,03,26,4.30
2010,02,21,03,27,4.30
2010,02,21,03,28,4.30
2010,02,21,03,29,4.30
2010,02,21,03,30,4.30
2010,02,21,03,31,4.30
2010,02,21,03,32,4.20
2010,02,21,03,33,4.20
2010,02,21,03,34,4.20
2010,02,21,03,35,4.20
2010,02,21,03,36,4.20
2010,02,21,03,37,4.20
2010,02,21,03,38,4.20
2010,02,21,03,39,4.20
2010,02,21,03,40,4.20
2010,02,21,03,41,4.20
2010,02,21,03,42,4.20
2010,02,21,03,43,4.20
2010,02,21,03,44,4.20
2010,02,21,03,45,4.10
2010,02,21,03,46,4.10
2010,02,21,03,47,4.10
2010,02,21,03,48,4.10
2010,02,21,03,49,4.00
2010,02,21,03,50,4.00
2010,02,21,03,51,4.00
2010,02,21,03,52,4.00
2010,02,21,03,53,4.00
2010,02,21,03,54,4.00
2010,02,21,03,55,4.00
2010,02,21,03,56,4.00
2010,02,21,03,57,3.90
2010,02,21,03,58,3.90
2010,02,21,03,59,3.90
2010,02,21,04,00,3.90
2010,02,21,04,01,3.90
2010,02,21,04,02,3.90
2010,02,21,04,03,3.90
2010,02,21,04,04,3.90
2010,02,21,04,05,3.90
2010,02,21,04,06,3.90
2010,02,21,04,07,3.80
2010,02,21,04,08,3.80
2010,02,21,04,09,3.80
2010,02,21,04,10,3.80
2010,02,21,04,11,3.80
2010,02,21,04,12,3.80
2010,02,21,04,13,3.80
2010,02,21,04,14,3.80
2010,02,21,04,15,3.80
2010,02,21,04,16,3.80
2010,02,21,04,17,3.80
2010,02,21,04,18,3.80
2010,02,21,04,19,3.70
2010,02,21,04,20,3.70
2010,02,21,04,21,3.70
2010,02,21,04,22,3.70
2010,02,21,04,23,3.70
2010,02,21,04,24,3.70
2010,02,21,04,25,3.70
2010,02,21,04,26,3.70
2010,02,21,04,27,3.70
2010,02,21,04,28,3.70
2010,02,21,04,29,3.60
2010,02,21,04,30,3.60
2010,02,21,04,31,3.60
2010,02,21,04,32,3.60
2010,02,21,04,33,3.60
2010,02,21,04,34,3.60
2010,02,21,04,35,3.60
2010,02,21,04,36,3.60
2010,02,21,04,37,3.60
2010,02,21,04,38,3.60
2010,02,21,04,39,3.60
2010,02,21,04,40,3.60
2010,02,21,04,41,3.60
2010,02,21,04,42,3.60
2010,02,21,04,43,3.60
2010,02,21,04,44,3.60
2010,02,21,04,45,3.60
2010,02,21,04,46,3.60
2010,02,21,04,47,3.60
2010,02,21,04,48,3.60
2010,02,21,04,49,3.60
2010,02,21,04,50,3.60
2010,02,21,04,51,3.60
2010,02,21,04,52,3.60
2010,02,21,04,53,3.60
2010,02,21,04,54,3.60
2010,02,21,04,55,3.60
2010,02,21,04,56,3.60
2010,02,21,04,57,3.60
2010,02,21,04,58,3.60
2010,02,21,04,59,3.60
2010,02,21,05,00,3.60
2010,02,21,05,01,3.60
2010,02,21,05,02,3.60
2010,02,21,05,03,3.60
2010,02,21,05,04,3.60
2010,02,21,05,05,3.60
2010,02,21,05,06,3.60
2010,02,21,05,07,3.60
2010,02,21,05,08,3.60
2010,02,21,05,09,3.60
2010,02,21,05,10,3.60
2010,02,21,05,11,3.70
2010,02,21,05,12,3.70
2010,02,21,05,13,3.70
2010,02,21,05,14,3.80
2010,02,21,05,15,3.80
2010,02,21,05,16,3.80
2010,02,21,05,17,3.80
2010,02,21,05,18,3.80
2010,02,21,05,19,3.80
2010,02,21,05,20,3.80
2010,02,21,05,21,3.80
2010,02,21,05,22,3.80
2010,02,21,05,23,3.80
2010,02,21,05,24,3.80
2010,02,21,05,25,3.80
2010,02,21,05,26,3.80
2010,02,21,05,27,3.80
2010,02,21,05,28,3.80
2010,02,21,05,29,3.80
2010,02,21,05,30,3.80
2010,02,21,05,31,3.80
2010,02,21,05,32,3.80
2010,02,21,05,33,3.80
2010,02,21,05,34,3.80
2010,02,21,05,35,3.80
2010,02,21,05,36,3.80
2010,02,21,05,37,3.80
2010,02,21,05,38,3.80
2010,02,21,05,39,3.80
2010,02,21,05,40,3.80
2010,02,21,05,41,3.70
2010,02,21,05,42,3.70
2010,02,21,05,43,3.70
2010,02,21,05,44,3.70
2010,02,21,05,45,3.70
2010,02,21,05,46,3.70
2010,02,21,05,47,3.70
2010,02,21,05,48,3.70
2010,02,21,05,49,3.70
2010,02,21,05,50,3.70
2010,02,21,05,51,3.70
2010,02,21,05,52,3.60
2010,02,21,05,53,3.60
2010,02,21,05,54,3.60
2010,02,21,05,55,3.60
2010,02,21,05,56,3.60
2010,02,21,05,57,3.60
2010,02,21,05,58,3.50
2010,02,21,05,59,3.50
2010,02,21,06,00,3.50
2010,02,21,06,01,3.50
2010,02,21,06,02,3.50
2010,02,21,06,03,3.50
2010,02,21,06,04,3.50
2010,02,21,06,05,3.50
2010,02,21,06,06,3.50
2010,02,21,06,07,3.50
2010,02,21,06,08,3.50
2010,02,21,06,09,3.50
2010,02,21,06,10,3.50
2010,02,21,06,11,3.60
2010,02,21,06,12,3.60
2010,02,21,06,13,3.60
2010,02,21,06,14,3.60
2010,02,21,06,15,3.60
2010,02,21,06,16,3.60
2010,02,21,06,17,3.60
2010,02,21,06,18,3.60
2010,02,21,06,19,3.60
2010,02,21,06,20,3.70
2010,02,21,06,21,3.70
2010,02,21,06,22,3.70
2010,02,21,06,23,3.70
2010,02,21,06,24,3.70
2010,02,21,06,25,3.70
2010,02,21,06,26,3.60
2010,02,21,06,27,3.60
2010,02,21,06,28,3.60
2010,02,21,06,29,3.60
2010,02,21,06,30,3.60
2010,02,21,06,31,3.60
2010,02,21,06,32,3.60
2010,02,21,06,33,3.60
2010,02,21,06,34,3.50
2010,02,21,06,35,3.50
2010,02,21,06,36,3.50
2010,02,21,06,37,3.50
2010,02,21,06,38,3.40
2010,02,21,06,39,3.50
2010,02,21,06,40,3.50
2010,02,21,06,41,3.50
2010,02,21,06,42,3.50
2010,02,21,06,43,3.50
2010,02,21,06,44,3.50
2010,02,21,06,45,3.50
2010,02,21,06,46,3.50
2010,02,21,06,47,3.50
2010,02,21,06,48,3.50
2010,02,21,06,49,3.40
2010,02,21,06,50,3.40
2010,02,21,06,51,3.40
2010,02,21,06,52,3.40
2010,02,21,06,53,3.40
2010,02,21,06,54,3.50
2010,02,21,06,55,3.50
2010,02,21,06,56,3.50
2010,02,21,06,57,3.50
2010,02,21,06,58,3.50
2010,02,21,06,59,3.50
2010,02,21,07,00,3.50
2010,02,21,07,01,3.50
2010,02,21,07,02,3.50
2010,02,21,07,03,3.50
2010,02,21,07,04,3.50
2010,02,21,07,05,3.50
2010,02,21,07,06,3.50
2010,02,21,07,07,3.50
2010,02,21,07,08,3.60
2010,02,21,07,09,3.60
2010,02,21,07,10,3.60
2010,02,21,07,11,3.50
2010,02,21,07,12,3.50
2010,02,21,07,13,3.50
2010,02,21,07,14,3.50
2010,02,21,07,15,3.50
2010,02,21,07,16,3.50
2010,02,21,07,17,3.50
2010,02,21,07,18,3.50
2010,02,21,07,19,3.50
2010,02,21,07,20,3.50
2010,02,21,07,21,3.50
2010,02,21,07,22,3.50
2010,02,21,07,23,3.50
2010,02,21,07,24,3.50
2010,02,21,07,25,3.50
2010,02,21,07,26,3.50
2010,02,21,07,27,3.50
2010,02,21,07,28,3.50
2010,02,21,07,29,3.50
2010,02,21,07,30,3.50
2010,02,21,07,31,3.50
2010,02,21,07,32,3.50
2010,02,21,07,33,3.50
2010,02,21,07,34,3.50
2010,02,21,07,35,3.50
2010,02,21,07,36,3.50
2010,02,21,07,37,3.50
2010,02,21,07,38,3.50
2010,02,21,07,39,3.60
2010,02,21,07,40,3.60
2010,02,21,07,41,3.70
2010,02,21,07,42,3.70
2010,02,21,07,43,3.70
2010,02,21,07,44,3.80
2010,02,21,07,45,3.80
2010,02,21,07,46,3.80
2010,02,21,07,47,3.80
2010,02,21,07,48,3.80
2010,02,21,07,49,3.80
2010,02,21,07,50,3.90
2010,02,21,07,51,3.90
2010,02,21,07,52,4.00
2010,02,21,07,53,4.00
2010,02,21,07,54,4.00
2010,02,21,07,55,4.10
2010,02,21,07,56,4.10
2010,02,21,07,57,4.10
2010,02,21,07,58,4.10
2010,02,21,07,59,4.10
2010,02,21,08,00,4.10
2010,02,21,08,01,4.10
2010,02,21,08,02,4.10
2010,02,21,08,03,4.10
2010,02,21,08,04,4.20
2010,02,21,08,05,4.20
2010,02,21,08,06,4.30
2010,02,21,08,07,4.30
2010,02,21,08,08,4.40
2010,02,21,08,09,4.40
2010,02,21,08,10,4.40
2010,02,21,08,11,4.40
2010,02,21,08,12,4.40
2010,02,21,08,13,4.40
2010,02,21,08,14,4.40
2010,02,21,08,15,4.50
2010,02,21,08,16,4.50
2010,02,21,08,17,4.50
2010,02,21,08,18,4.60
2010,02,21,08,19,4.60
2010,02,21,08,20,4.70
2010,02,21,08,21,4.80
2010,02,21,08,22,4.90
2010,02,21,08,23,5.00
2010,02,21,08,24,5.10
2010,02,21,08,25,5.10
2010,02,21,08,26,5.20
2010,02,21,08,27,5.30
2010,02,21,08,28,5.30
2010,02,21,08,29,5.40
2010,02,21,08,30,5.50
2010,02,21,08,31,5.50
2010,02,21,08,32,5.50
2010,02,21,08,33,5.60
2010,02,21,08,34,5.60
2010,02,21,08,35,5.60
2010,02,21,08,36,5.60
2010,02,21,08,37,5.70
2010,02,21,08,38,5.70
2010,02,21,08,39,5.70
2010,02,21,08,40,5.80
2010,02,21,08,41,5.80
2010,02,21,08,42,5.90
2010,02,21,08,43,5.90
2010,02,21,08,44,5.90
2010,02,21,08,45,6.00
2010,02,21,08,46,6.00
2010,02,21,08,47,6.10
2010,02,21,08,48,6.10
2010,02,21,08,49,6.10
2010,02,21,08,50,6.10
2010,02,21,08,51,6.20
2010,02,21,08,52,6.20
2010,02,21,08,53,6.20
2010,02,21,08,54,6.30
2010,02,21,08,55,6.40
2010,02,21,08,56,6.40
2010,02,21,08,57,6.40
2010,02,21,08,58,6.50
2010,02,21,08,59,6.60
2010,02,21,09,00,6.70
2010,02,21,09,01,6.80
2010,02,21,09,02,6.80
2010,02,21,09,03,6.80
2010,02,21,09,04,6.80
2010,02,21,09,05,6.70
2010,02,21,09,06,6.70
2010,02,21,09,07,6.60
2010,02,21,09,08,6.60
2010,02,21,09,09,6.50
2010,02,21,09,10,6.40
2010,02,21,09,11,6.40
2010,02,21,09,12,6.60
2010,02,21,09,13,6.60
2010,02,21,09,14,6.70
2010,02,21,09,15,6.80
2010,02,21,09,16,6.90
2010,02,21,09,17,7.00
2010,02,21,09,18,7.10
2010,02,21,09,19,7.10
2010,02,21,09,20,7.20
2010,02,21,09,21,7.30
2010,02,21,09,22,7.30
2010,02,21,09,23,7.20
2010,02,21,09,24,7.10
2010,02,21,09,25,7.00
2010,02,21,09,26,6.90
2010,02,21,09,27,6.80
2010,02,21,09,28,6.70
2010,02,21,09,29,6.70
2010,02,21,09,30,6.70
2010,02,21,09,31,6.60
2010,02,21,09,32,6.60
2010,02,21,09,33,6.60
2010,02,21,09,34,6.70
2010,02,21,09,35,6.80
2010,02,21,09,36,6.90
2010,02,21,09,37,7.00
2010,02,21,09,38,7.10
2010,02,21,09,39,7.30
2010,02,21,09,40,7.40
2010,02,21,09,41,7.50
2010,02,21,09,42,7.60
2010,02,21,09,43,7.70
2010,02,21,09,44,7.60
2010,02,21,09,45,7.60
2010,02,21,09,46,7.60
2010,02,21,09,47,7.50
2010,02,21,09,48,7.30
2010,02,21,09,49,7.30
2010,02,21,09,50,7.20
2010,02,21,09,51,7.20
2010,02,21,09,52,7.30
2010,02,21,09,53,7.30
2010,02,21,09,54,7.30
2010,02,21,09,55,7.30
2010,02,21,09,56,7.50
2010,02,21,09,57,7.70
2010,02,21,09,58,7.70
2010,02,21,09,59,7.80
2010,02,21,10,00,7.80
2010,02,21,10,01,7.80
2010,02,21,10,02,7.90
2010,02,21,10,03,8.00
2010,02,21,10,04,8.00
2010,02,21,10,05,8.20
2010,02,21,10,06,8.20
2010,02,21,10,07,8.20
2010,02,21,10,08,8.20
2010,02,21,10,09,8.20
2010,02,21,10,10,8.30
2010,02,21,10,11,8.40
2010,02,21,10,12,8.40
2010,02,21,10,13,8.40
2010,02,21,10,14,8.20
2010,02,21,10,15,8.10
2010,02,21,10,16,8.00
2010,02,21,10,17,8.00
2010,02,21,10,18,7.90
2010,02,21,10,19,7.90
2010,02,21,10,20,7.80
2010,02,21,10,21,7.80
2010,02,21,10,22,7.90
2010,02,21,10,23,8.00
2010,02,21,10,24,8.20
2010,02,21,10,25,8.30
2010,02,21,10,26,8.40
2010,02,21,10,27,8.50
2010,02,21,10,28,8.60
2010,02,21,10,29,8.60
2010,02,21,10,30,8.50
2010,02,21,10,31,8.50
2010,02,21,10,32,8.50
2010,02,21,10,33,8.60
2010,02,21,10,34,8.70
2010,02,21,10,35,8.70
2010,02,21,10,36,8.70
2010,02,21,10,37,8.80
2010,02,21,10,38,8.70
2010,02,21,10,39,8.70
2010,02,21,10,40,8.70
2010,02,21,10,41,8.60
2010,02,21,10,42,8.50
2010,02,21,10,43,8.40
2010,02,21,10,44,8.30
2010,02,21,10,45,8.30
2010,02,21,10,46,8.30
2010,02,21,10,47,8.50
2010,02,21,10,48,8.50
2010,02,21,10,49,8.50
2010,02,21,10,50,8.60
2010,02,21,10,51,8.70
2010,02,21,10,52,8.70
2010,02,21,10,53,8.60
2010,02,21,10,54,8.60
2010,02,21,10,55,8.70
2010,02,21,10,56,8.90
2010,02,21,10,57,8.90
2010,02,21,10,58,8.80
2010,02,21,10,59,8.70
2010,02,21,11,00,8.70
2010,02,21,11,01,8.70
2010,02,21,11,02,8.90
2010,02,21,11,03,9.00
2010,02,21,11,04,9.00
2010,02,21,11,05,9.10
2010,02,21,11,06,9.10
2010,02,21,11,07,9.00
2010,02,21,11,08,9.00
2010,02,21,11,09,9.00
2010,02,21,11,10,9.00
2010,02,21,11,11,8.90
2010,02,21,11,12,8.90
2010,02,21,11,13,9.00
2010,02,21,11,14,8.90
2010,02,21,11,15,8.90
2010,02,21,11,16,8.90
2010,02,21,11,17,9.00
2010,02,21,11,18,9.10
2010,02,21,11,19,9.20
2010,02,21,11,20,9.20
2010,02,21,11,21,9.20
2010,02,21,11,22,9.30
2010,02,21,11,23,9.40
2010,02,21,11,24,9.50
2010,02,21,11,25,9.60
2010,02,21,11,26,9.60
2010,02,21,11,27,9.70
2010,02,21,11,28,9.70
2010,02,21,11,29,9.70
2010,02,21,11,30,9.70
2010,02,21,11,31,9.80
2010,02,21,11,32,9.70
2010,02,21,11,33,9.70
2010,02,21,11,34,9.70
2010,02,21,11,35,9.70
2010,02,21,11,36,9.70
2010,02,21,11,37,9.70
2010,02,21,11,38,9.70
2010,02,21,11,39,9.70
2010,02,21,11,40,9.70
2010,02,21,11,41,9.80
2010,02,21,11,42,9.80
2010,02,21,11,43,9.90
2010,02,21,11,44,9.90
2010,02,21,11,45,10.10
2010,02,21,11,46,10.10
2010,02,21,11,47,10.10
2010,02,21,11,48,10.10
2010,02,21,11,49,10.20
2010,02,21,11,50,10.20
2010,02,21,11,51,10.30
2010,02,21,11,52,10.40
2010,02,21,11,53,10.50
2010,02,21,11,54,10.60
2010,02,21,11,55,10.60
2010,02,21,11,56,10.60
2010,02,21,11,57,10.70
2010,02,21,11,58,10.80
2010,02,21,11,59,10.90
2010,02,21,12,00,10.90
2010,02,21,12,01,10.90
2010,02,21,12,02,10.90
2010,02,21,12,03,11.00
2010,02,21,12,04,11.10
2010,02,21,12,05,11.10
2010,02,21,12,06,11.10
2010,02,21,12,07,11.10
2010,02,21,12,08,11.10
2010,02,21,12,09,11.10
2010,02,21,12,10,11.10
2010,02,21,12,11,11.10
2010,02,21,12,12,11.10
2010,02,21,12,13,11.10
2010,02,21,12,14,11.10
2010,02,21,12,15,11.10
2010,02,21,12,16,11.10
2010,02,21,12,17,11.10
2010,02,21,12,18,11.10
2010,02,21,12,19,11.10
2010,02,21,12,20,11.10
2010,02,21,12,21,11.20
2010,02,21,12,22,11.20
2010,02,21,12,23,11.30
2010,02,21,12,24,11.30
2010,02,21,12,25,11.30
2010,02,21,12,26,11.30
2010,02,21,12,27,11.40
2010,02,21,12,28,11.40
2010,02,21,12,29,11.50
2010,02,21,12,30,11.60
2010,02,21,12,31,11.60
2010,02,21,12,32,11.60
2010,02,21,12,33,11.60
2010,02,21,12,34,11.60
2010,02,21,12,35,11.60
2010,02,21,12,36,11.60
2010,02,21,12,37,11.60
2010,02,21,12,38,11.60
2010,02,21,12,39,11.60
2010,02,21,12,40,11.60
2010,02,21,12,41,11.60
2010,02,21,12,42,11.60
2010,02,21,12,43,11.60
2010,02,21,12,44,11.60
2010,02,21,12,45,11.60
2010,02,21,12,46,11.60
2010,02,21,12,47,11.60
2010,02,21,12,48,11.70
2010,02,21,12,49,11.70
2010,02,21,12,50,11.70
2010,02,21,12,51,11.80
2010,02,21,12,52,11.80
2010,02,21,12,53,11.80
2010,02,21,12,54,11.80
2010,02,21,12,55,11.80
2010,02,21,12,56,11.80
2010,02,21,12,57,11.80
2010,02,21,12,58,11.80
2010,02,21,12,59,11.80
2010,02,21,13,00,11.80
2010,02,21,13,01,11.80
2010,02,21,13,02,11.80
2010,02,21,13,03,11.80
2010,02,21,13,04,11.80
2010,02,21,13,05,11.80
2010,02,21,13,06,11.80
2010,02,21,13,07,11.90
2010,02,21,13,08,11.90
2010,02,21,13,09,11.90
2010,02,21,13,10,11.80
2010,02,21,13,11,11.70
2010,02,21,13,12,11.60
2010,02,21,13,13,11.60
2010,02,21,13,14,11.70
2010,02,21,13,15,11.70
2010,02,21,13,16,11.60
2010,02,21,13,17,11.60
2010,02,21,13,18,11.60
2010,02,21,13,19,11.60
2010,02,21,13,20,11.60
2010,02,21,13,21,11.60
2010,02,21,13,22,11.70
2010,02,21,13,23,11.80
2010,02,21,13,24,11.80
2010,02,21,13,25,11.90
2010,02,21,13,26,11.90
2010,02,21,13,27,11.70
2010,02,21,13,28,11.50
2010,02,21,13,29,11.40
2010,02,21,13,30,11.40
2010,02,21,13,31,11.40
2010,02,21,13,32,11.60
2010,02,21,13,33,11.60
2010,02,21,13,34,11.80
2010,02,21,13,35,11.80
2010,02,21,13,36,11.80
2010,02,21,13,37,11.80
2010,02,21,13,38,11.80
2010,02,21,13,39,11.90
2010,02,21,13,40,11.90
2010,02,21,13,41,11.90
2010,02,21,13,42,11.80
2010,02,21,13,43,11.80
2010,02,21,13,44,11.80
2010,02,21,13,45,11.80
2010,02,21,13,46,11.80
2010,02,21,13,47,12.00
2010,02,21,13,48,12.00
2010,02,21,13,49,12.00
2010,02,21,13,50,12.10
2010,02,21,13,51,12.20
2010,02,21,13,52,12.30
2010,02,21,13,53,12.20
2010,02,21,13,54,12.20
2010,02,21,13,55,12.10
2010,02,21,13,56,12.10
2010,02,21,13,57,12.20
2010,02,21,13,58,12.20
2010,02,21,13,59,12.30
2010,02,21,14,00,12.30
2010,02,21,14,01,12.30
2010,02,21,14,02,12.40
2010,02,21,14,03,12.50
2010,02,21,14,04,12.40
2010,02,21,14,05,12.30
2010,02,21,14,06,12.30
2010,02,21,14,07,12.20
2010,02,21,14,08,12.20
2010,02,21,14,09,12.20
2010,02,21,14,10,12.30
2010,02,21,14,11,12.20
2010,02,21,14,12,12.30
2010,02,21,14,13,12.30
2010,02,21,14,14,12.30
2010,02,21,14,15,12.40
2010,02,21,14,16,12.40
2010,02,21,14,17,12.50
2010,02,21,14,18,12.50
2010,02,21,14,19,12.50
2010,02,21,14,20,12.60
2010,02,21,14,21,12.60
2010,02,21,14,22,12.60
2010,02,21,14,23,12.60
2010,02,21,14,24,12.60
2010,02,21,14,25,12.60
2010,02,21,14,26,12.60
2010,02,21,14,27,12.60
2010,02,21,14,28,12.50
2010,02,21,14,29,12.40
2010,02,21,14,30,12.30
2010,02,21,14,31,12.30
2010,02,21,14,32,12.30
2010,02,21,14,33,12.40
2010,02,21,14,34,12.50
2010,02,21,14,35,12.50
2010,02,21,14,36,12.60
2010,02,21,14,37,12.70
2010,02,21,14,38,12.80
2010,02,21,14,39,12.80
2010,02,21,14,40,12.70
2010,02,21,14,41,12.80
2010,02,21,14,42,12.80
2010,02,21,14,43,12.60
2010,02,21,14,44,12.60
2010,02,21,14,45,12.60
2010,02,21,14,46,12.60
2010,02,21,14,47,12.70
2010,02,21,14,48,12.70
2010,02,21,14,49,12.80
2010,02,21,14,50,12.80
2010,02,21,14,51,12.90
2010,02,21,14,52,12.90
2010,02,21,14,53,12.90
2010,02,21,14,54,12.90
2010,02,21,14,55,12.90
2010,02,21,14,56,12.80
2010,02,21,14,57,12.80
2010,02,21,14,58,12.80
2010,02,21,14,59,12.80
2010,02,21,15,00,12.60
2010,02,21,15,01,12.50
2010,02,21,15,02,12.40
2010,02,21,15,03,12.40
2010,02,21,15,04,12.40
2010,02,21,15,05,12.40
2010,02,21,15,06,12.40
2010,02,21,15,07,12.40
2010,02,21,15,08,12.30
2010,02,21,15,09,12.30
2010,02,21,15,10,12.30
2010,02,21,15,11,12.30
2010,02,21,15,12,12.30
2010,02,21,15,13,12.30
2010,02,21,15,14,12.30
2010,02,21,15,15,12.40
2010,02,21,15,16,12.30
2010,02,21,15,17,12.30
2010,02,21,15,18,12.30
2010,02,21,15,19,12.20
2010,02,21,15,20,12.20
2010,02,21,15,21,12.10
2010,02,21,15,22,12.10
2010,02,21,15,23,12.20
2010,02,21,15,24,12.20
2010,02,21,15,25,12.20
2010,02,21,15,26,12.20
2010,02,21,15,27,12.20
2010,02,21,15,28,12.30
2010,02,21,15,29,12.30
2010,02,21,15,30,12.30
2010,02,21,15,31,12.40
2010,02,21,15,32,12.40
2010,02,21,15,33,12.30
2010,02,21,15,34,12.20
2010,02,21,15,35,11.80
2010,02,21,15,36,11.50
2010,02,21,15,37,11.20
2010,02,21,15,38,10.90
2010,02,21,15,39,10.60
2010,02,21,15,40,10.40
2010,02,21,15,41,10.40
2010,02,21,15,42,10.40
2010,02,21,15,43,10.40
2010,02,21,15,44,10.20
2010,02,21,15,45,10.10
2010,02,21,15,46,9.90
2010,02,21,15,47,9.80
2010,02,21,15,48,9.70
2010,02,21,15,49,9.70
2010,02,21,15,50,9.70
2010,02,21,15,51,9.70
2010,02,21,15,52,9.70
2010,02,21,15,53,9.80
2010,02,21,15,54,9.80
2010,02,21,15,55,9.80
2010,02,21,15,56,9.80
2010,02,21,15,57,9.80
2010,02,21,15,58,9.80
2010,02,21,15,59,9.80
2010,02,21,16,00,9.70
2010,02,21,16,01,9.70
2010,02,21,16,02,9.70
2010,02,21,16,03,9.70
2010,02,21,16,04,9.80
2010,02,21,16,05,9.90
2010,02,21,16,06,9.90
2010,02,21,16,07,9.90
2010,02,21,16,08,9.90
2010,02,21,16,09,9.90
2010,02,21,16,10,9.90
2010,02,21,16,11,9.90
2010,02,21,16,12,9.90
2010,02,21,16,13,9.90
2010,02,21,16,14,9.90
2010,02,21,16,15,9.90
2010,02,21,16,16,9.90
2010,02,21,16,17,9.90
2010,02,21,16,18,10.00
2010,02,21,16,19,10.10
2010,02,21,16,20,10.00
2010,02,21,16,21,9.90
2010,02,21,16,22,9.90
2010,02,21,16,23,10.00
2010,02,21,16,24,10.10
2010,02,21,16,25,10.30
2010,02,21,16,26,10.30
2010,02,21,16,27,10.20
2010,02,21,16,28,10.10
2010,02,21,16,29,10.10
2010,02,21,16,30,10.00
2010,02,21,16,31,9.90
2010,02,21,16,32,9.90
2010,02,21,16,33,9.90
2010,02,21,16,34,9.80
2010,02,21,16,35,9.80
2010,02,21,16,36,9.90
2010,02,21,16,37,9.90
2010,02,21,16,38,9.90
2010,02,21,16,39,9.90
2010,02,21,16,40,9.90
2010,02,21,16,41,9.80
2010,02,21,16,42,9.80
2010,02,21,16,43,9.80
2010,02,21,16,44,9.70
2010,02,21,16,45,9.70
2010,02,21,16,46,9.70
2010,02,21,16,47,9.70
2010,02,21,16,48,9.70
2010,02,21,16,49,9.60
2010,02,21,16,50,9.50
2010,02,21,16,51,9.30
2010,02,21,16,52,9.20
2010,02,21,16,53,9.20
2010,02,21,16,54,9.20
2010,02,21,16,55,9.10
2010,02,21,16,56,9.00
2010,02,21,16,57,8.90
2010,02,21,16,58,8.80
2010,02,21,16,59,8.70
2010,02,21,17,00,8.60
2010,02,21,17,01,8.50
2010,02,21,17,02,8.40
2010,02,21,17,03,8.50
2010,02,21,17,04,8.50
2010,02,21,17,05,8.50
2010,02,21,17,06,8.40
2010,02,21,17,07,8.40
2010,02,21,17,08,8.40
2010,02,21,17,09,8.30
2010,02,21,17,10,8.30
2010,02,21,17,11,8.30
2010,02,21,17,12,8.30
2010,02,21,17,13,8.20
2010,02,21,17,14,8.20
2010,02,21,17,15,8.20
2010,02,21,17,16,8.20
2010,02,21,17,17,8.20
2010,02,21,17,18,8.10
2010,02,21,17,19,8.10
2010,02,21,17,20,8.00
2010,02,21,17,21,8.00
2010,02,21,17,22,8.00
2010,02,21,17,23,8.00
2010,02,21,17,24,8.00
2010,02,21,17,25,8.00
2010,02,21,17,26,7.90
2010,02,21,17,27,7.90
2010,02,21,17,28,7.90
2010,02,21,17,29,7.90
2010,02,21,17,30,7.90
2010,02,21,17,31,7.90
2010,02,21,17,32,7.90
2010,02,21,17,33,7.90
2010,02,21,17,34,8.00
2010,02,21,17,35,8.00
2010,02,21,17,36,8.00
2010,02,21,17,37,8.00
2010,02,21,17,38,8.00
2010,02,21,17,39,8.10
2010,02,21,17,40,8.10
2010,02,21,17,41,8.10
2010,02,21,17,42,8.10
2010,02,21,17,43,8.20
2010,02,21,17,44,8.20
2010,02,21,17,45,8.20
2010,02,21,17,46,8.20
2010,02,21,17,47,8.20
2010,02,21,17,48,8.20
2010,02,21,17,49,8.20
2010,02,21,17,50,8.20
2010,02,21,17,51,8.20
2010,02,21,17,52,8.20
2010,02,21,17,53,8.20
2010,02,21,17,54,8.20
2010,02,21,17,55,8.20